When you browse on this site, cookies collect data to enhance your experience and personalize the content and advertising you see.
Visit our Privacy Policy to learn more. By continuing to use the site, you agree to this use of cookies and data.
  • In Hungary
  • List of Countries
  • For 7 days
  • Water Temperature
  • Weather Map
  • News
  • Weather Widgets
  • user-avatar
    Login

    Hourly Weather Shinyaevo

    Today, 28 January, Tuesday

    Time Temperature Precipitation Wind Pressure Humidity
    00:00 -7°C° 0 mm 5 mps 747 mmHg 82%
    01:00 -7°C° 0 mm 5 mps 746 mmHg 84%
    02:00 -7°C° 0 mm 5 mps 746 mmHg 86%
    03:00 -7°C° 0 mm 5 mps 746 mmHg 87%
    04:00 -7°C° 0 mm 5 mps 746 mmHg 88%
    05:00 -6°C° 0 mm 5 mps 746 mmHg 89%
    06:00 -6°C° 0 mm 5 mps 747 mmHg 89%
    07:00 -6°C° 0 mm 5 mps 747 mmHg 89%
    08:00 -7°C° 0 mm 4 mps 747 mmHg 90%
    09:00 -7°C° 0 mm 4 mps 747 mmHg 91%
    10:00 -5°C° 0 mm 4 mps 748 mmHg 89%
    11:00 -6°C° 0 mm 5 mps 748 mmHg 86%
    12:00 -6°C° 0 mm 5 mps 748 mmHg 84%
    13:00 -5°C° 0.2 mm 4 mps 748 mmHg 86%
    14:00 -5°C° 0.2 mm 4 mps 748 mmHg 88%
    15:00 -7°C° 0.2 mm 4 mps 748 mmHg 90%
    16:00 -7°C° 0.2 mm 4 mps 748 mmHg 90%
    17:00 -8°C° 0.2 mm 5 mps 749 mmHg 89%
    18:00 -9°C° 0.2 mm 6 mps 749 mmHg 89%
    19:00 -10°C° 0 mm 5 mps 749 mmHg 89%
    20:00 -10°C° 0 mm 4 mps 749 mmHg 90%
    21:00 -11°C° 0 mm 4 mps 749 mmHg 90%
    22:00 -10°C° 0 mm 3 mps 749 mmHg 91%
    23:00 -10°C° 0 mm 3 mps 749 mmHg 91%

    Tomorrow, 29 January, Wednesday

    Time Temperature Precipitation Wind Pressure Humidity
    00:00 -12°C° 0 mm 3 mps 749 mmHg 92%
    01:00 -10°C° 0 mm 2 mps 749 mmHg 93%
    02:00 -10°C° 0 mm 2 mps 748 mmHg 94%
    03:00 -10°C° 0 mm 2 mps 748 mmHg 95%
    04:00 -9°C° 0.2 mm 2 mps 748 mmHg 95%
    05:00 -9°C° 0.2 mm 2 mps 748 mmHg 95%
    06:00 -8°C° 0.2 mm 2 mps 748 mmHg 95%
    07:00 -8°C° 0.1 mm 2 mps 748 mmHg 95%
    08:00 -8°C° 0.1 mm 2 mps 748 mmHg 95%
    09:00 -8°C° 0.1 mm 2 mps 748 mmHg 95%
    10:00 -9°C° 0.1 mm 3 mps 749 mmHg 94%
    11:00 -9°C° 0.1 mm 3 mps 749 mmHg 93%
    12:00 -9°C° 0.1 mm 4 mps 750 mmHg 92%
    13:00 -10°C° 0 mm 4 mps 751 mmHg 90%
    14:00 -12°C° 0 mm 5 mps 752 mmHg 88%
    15:00 -14°C° 0 mm 6 mps 753 mmHg 87%
    16:00 -16°C° 0 mm 6 mps 755 mmHg 87%
    17:00 -18°C° 0 mm 6 mps 756 mmHg 88%
    18:00 -21°C° 0 mm 6 mps 758 mmHg 88%
    19:00 -22°C° 0.1 mm 6 mps 759 mmHg 90%
    20:00 -22°C° 0.1 mm 5 mps 760 mmHg 91%
    21:00 -24°C° 0.1 mm 5 mps 761 mmHg 92%
    22:00 -24°C° 0.1 mm 5 mps 761 mmHg 93%
    23:00 -25°C° 0.1 mm 5 mps 762 mmHg 93%

    Day after tomorrow, 30 January, Thursday

    Time Temperature Precipitation Wind Pressure Humidity
    00:00 -25°C° 0.1 mm 5 mps 763 mmHg 94%
    01:00 -26°C° 0.1 mm 5 mps 763 mmHg 94%
    02:00 -26°C° 0.1 mm 5 mps 764 mmHg 93%
    03:00 -26°C° 0.1 mm 5 mps 764 mmHg 93%
    04:00 -27°C° 0 mm 5 mps 765 mmHg 93%
    05:00 -27°C° 0 mm 5 mps 765 mmHg 92%
    06:00 -28°C° 0 mm 5 mps 765 mmHg 92%
    07:00 -28°C° 0 mm 5 mps 766 mmHg 92%
    08:00 -29°C° 0 mm 5 mps 766 mmHg 92%
    09:00 -29°C° 0 mm 4 mps 767 mmHg 92%
    10:00 -29°C° 0 mm 5 mps 767 mmHg 92%
    11:00 -28°C° 0 mm 5 mps 767 mmHg 92%
    12:00 -28°C° 0 mm 5 mps 766 mmHg 91%
    13:00 -27°C° 0 mm 4 mps 766 mmHg 91%
    14:00 -26°C° 0 mm 4 mps 766 mmHg 91%
    15:00 -26°C° 0 mm 4 mps 767 mmHg 91%
    16:00 -26°C° 0 mm 3 mps 767 mmHg 92%
    17:00 -27°C° 0 mm 3 mps 766 mmHg 94%
    18:00 -30°C° 0 mm 3 mps 766 mmHg 95%
    19:00 -28°C° 0 mm 2 mps 767 mmHg 95%
    20:00 -29°C° 0 mm 2 mps 767 mmHg 96%
    21:00 -30°C° 0 mm 2 mps 767 mmHg 96%
    22:00 -30°C° 0 mm 2 mps 767 mmHg 97%
    23:00 -29°C° 0 mm 2 mps 766 mmHg 97%

    31 January, Friday

    Time Temperature Precipitation Wind Pressure Humidity
    00:00 -29°C° 0 mm 2 mps 766 mmHg 97%
    01:00 -29°C° 0 mm 2 mps 766 mmHg 97%
    02:00 -29°C° 0 mm 2 mps 766 mmHg 97%
    03:00 -29°C° 0 mm 2 mps 766 mmHg 97%
    04:00 -30°C° 0 mm 2 mps 766 mmHg 97%
    05:00 -30°C° 0 mm 2 mps 766 mmHg 98%
    06:00 -30°C° 0 mm 2 mps 766 mmHg 98%
    07:00 -31°C° 0 mm 2 mps 767 mmHg 97%
    08:00 -32°C° 0 mm 2 mps 767 mmHg 97%
    09:00 -34°C° 0 mm 2 mps 767 mmHg 97%
    10:00 -31°C° 0 mm 2 mps 767 mmHg 96%
    11:00 -30°C° 0 mm 2 mps 767 mmHg 94%
    12:00 -29°C° 0 mm 2 mps 767 mmHg 93%
    13:00 -28°C° 0 mm 2 mps 767 mmHg 93%
    14:00 -25°C° 0 mm 1 mps 767 mmHg 93%
    15:00 -25°C° 0 mm 1 mps 767 mmHg 93%
    16:00 -27°C° 0 mm 1 mps 767 mmHg 94%
    17:00 -28°C° 0 mm 1 mps 767 mmHg 95%
    18:00 -29°C° 0 mm 1 mps 768 mmHg 96%
    19:00 -30°C° 0 mm 1 mps 768 mmHg 96%
    20:00 -30°C° 0 mm 1 mps 768 mmHg 97%
    21:00 -31°C° 0 mm 1 mps 768 mmHg 97%
    22:00 -31°C° 0 mm 1 mps 768 mmHg 97%
    23:00 -31°C° 0 mm 1 mps 768 mmHg 97%

    1 February, Saturday

    Time Temperature Precipitation Wind Pressure Humidity
    00:00 -32°C° 0 mm 1 mps 768 mmHg 98%
    01:00 -32°C° 0 mm 1 mps 768 mmHg 98%
    02:00 -32°C° 0 mm 1 mps 769 mmHg 98%
    03:00 -33°C° 0 mm 1 mps 769 mmHg 98%
    04:00 -33°C° 0 mm 1 mps 769 mmHg 98%
    05:00 -33°C° 0 mm 1 mps 769 mmHg 98%
    06:00 -33°C° 0 mm 1 mps 769 mmHg 98%
    07:00 -32°C° 0 mm 1 mps 769 mmHg 98%
    08:00 -31°C° 0 mm 0 mps 769 mmHg 98%
    09:00 -31°C° 0 mm 0 mps 769 mmHg 98%
    10:00 -29°C° 0 mm 0 mps 769 mmHg 96%
    11:00 -28°C° 0 mm 0 mps 769 mmHg 94%
    12:00 -27°C° 0 mm 0 mps 769 mmHg 92%
    13:00 -26°C° 0 mm 0 mps 769 mmHg 92%
    14:00 -26°C° 0 mm 0 mps 769 mmHg 92%
    15:00 -25°C° 0 mm 0 mps 769 mmHg 92%
    16:00 -27°C° 0 mm 0 mps 769 mmHg 94%
    17:00 -29°C° 0 mm 0 mps 769 mmHg 96%
    18:00 -30°C° 0 mm 0 mps 769 mmHg 98%
    19:00 -30°C° 0 mm 0 mps 769 mmHg 97%
    20:00 -30°C° 0 mm 0 mps 770 mmHg 97%
    21:00 -31°C° 0 mm 1 mps 770 mmHg 97%
    22:00 -31°C° 0 mm 1 mps 770 mmHg 97%
    23:00 -31°C° 0 mm 1 mps 769 mmHg 97%

    2 February, Sunday

    Time Temperature Precipitation Wind Pressure Humidity
    00:00 -31°C° 0 mm 1 mps 769 mmHg 97%
    01:00 -31°C° 0 mm 1 mps 769 mmHg 97%
    02:00 -32°C° 0 mm 1 mps 769 mmHg 97%
    03:00 -32°C° 0 mm 1 mps 769 mmHg 98%
    04:00 -35°C° 0 mm 2 mps 769 mmHg 98%
    05:00 -35°C° 0 mm 2 mps 769 mmHg 98%
    06:00 -35°C° 0 mm 2 mps 769 mmHg 97%
    07:00 -35°C° 0 mm 2 mps 769 mmHg 97%
    08:00 -35°C° 0 mm 2 mps 769 mmHg 97%
    09:00 -35°C° 0 mm 2 mps 769 mmHg 97%
    10:00 -32°C° 0 mm 2 mps 769 mmHg 96%
    11:00 -31°C° 0 mm 2 mps 769 mmHg 94%
    12:00 -29°C° 0 mm 2 mps 769 mmHg 93%
    13:00 -28°C° 0 mm 2 mps 769 mmHg 93%
    14:00 -28°C° 0 mm 2 mps 769 mmHg 92%
    15:00 -27°C° 0 mm 2 mps 769 mmHg 92%
    16:00 -28°C° 0 mm 2 mps 769 mmHg 93%
    17:00 -30°C° 0 mm 2 mps 769 mmHg 95%
    18:00 -31°C° 0 mm 2 mps 770 mmHg 96%
    19:00 -32°C° 0 mm 2 mps 770 mmHg 96%
    20:00 -32°C° 0 mm 2 mps 770 mmHg 96%
    21:00 -34°C° 0 mm 2 mps 770 mmHg 96%
    22:00 -34°C° 0 mm 2 mps 770 mmHg 96%
    23:00 -35°C° 0 mm 2 mps 770 mmHg 96%
    Show more